Find Starlink 35128

NORAD ID: 65628 Int'l Des: 2025-210 Owner: SPXS Country: US Constellation: starlink operational
LEOCIRCULAR

当前视图

正在加载3D地球...

About Starlink 35128

Starlink 35128 (NORAD 65628) is a starlink constellation satellite (v2 mini) launched Sep 18, 2025 by SPXS of US. It operates in LEO, CIRCULAR orbit with a mass of 575.00 kg.

即将过境

Passes for default location (London). Set your location on the main map for personalized predictions.

高度历史

Loading altitude history...

两行轨道根数

1 65628U 25210G 26263.98189340 .00014123 00000-0 42820-3 0 9998
2 65628 53.1583 115.5411 0001758 96.6257 263.4946 15.34409210 57698
Epoch: Sep 20, 2026 • Age: 16 hours

当前状态

高度 464.7 km
远地点 / 近地点 N/A
速度 7.64 km/s
星下点 36.10°N, 86.18°W
发射日期 Sep 18, 2025
运行时间 1 year
类型 internet

技术详情

分类 Payload
质量 575.00 kg
干质量 530.00 kg
长度 0.30 m
跨度 29.00 m
形状 ? Box + pan
制造商 SPXS
平台类型 Starlink V2MO
阶段状态 In Orbit
所有者/国家 SPXS/US

Most Searched